DECAYED

STARLINK-3042, 49142 (Decayed)

Orbit data source: Space-Track

STARLINK-3042, 49142 was a payload satellite owned by SpaceX/Seattle (US) in LEO that was launched on Tue, 14 Sep 2021 UTC via an FALCON 9 launch vehicle from the Air Force Western Test Range (AFWTR). Payload-class satellites include a variety of spacecraft equipped with specific instruments for various scientific and technological missions. These include communications satellites like Starlink; space stations such as the ISS; scientific satellites like the Hubble; Earth observation satellites from companies like Planet Labs, Umbra, and HawkEye 360; GPS; miniature CubeSats for education and research; and military/defense satellites.

Not visible in the next 10 days
Identifier
49142, 2021-082N
Orbit
Decayed
Country
Flag of USUS
Related business
Manufacturer
SpaceX/Seattle
Mission
Decayed Commercial Communications
Bus & Motor
STARLINK, Unknown motor
Mass
297 kg wet, ~275 kg dry
Launch date (UTC)
2021-09-14 (4 years ago)
Launch vehicle
FALCON 9
Launch site
Air Force Western Test Range (AFWTR)
Object type
Payload
Rocket body
Debris
Shape & HBR
Box + 1 Pan, 10.1 m
Radar Cross Section
13.562 m², Large (>1 m²)

Expand to show TLE details & history
Last TLE update: 5 months ago

TLE from 5 months ago
0 STARLINK-3042
1 49142U 21082N   25141.10800520  .15326854  44942-5  12971-3 0  9997
2 49142  69.9835 247.8149 0012190 259.4207 169.3225 16.51474736203725
Epoch: 2025-05-21T02:35Z
TLE epoch observation values (Epoch: 2025-05-21T02:35:31.649Z)
Latitude
61.26318°
Longitude
11.27879°
Altitude
153.117 km
Speed
7.816 km/s
True Right ascension
19h 16m 37s
True Declination
61° 06' 16"
Sunlit
Object was in daylight at epoch
Visualization orbit readout
Latitude
Unknown
Longitude
Unknown
Altitude
Unknown
Speed
Unknown
Apparent Right ascension
Unknown
Apparent Declination
Unknown
Sunlit
N/A
Visualization observer readout
Local Sidereal Time
20:02:09
Azimuth
Unknown
Elevation
Unknown
Doppler factor
Unknown
Orbital elements
Apogee altitude
141.204 km
Perigee altitude
125.33 km
Semi-major axis
6,511.404 km
Eccentricity
0.00122
Inclination
69.9835°
RAAN
247.8149°
Arg. of periapsis
259.4207°
True anomaly
169.34834°
Mean anomaly
169.3225°
Eccentric anomaly
169.33543°
Mean motion
4.13077 °/min
Orbital period
87.15 mins
BSTAR
0.00012971
Loading maneuver chart data...
Computing Atmospheric mass density...
Loading historical data...
Loading historical data...
Loading historical data...
Loading historical data...
Loading historical data...
Loading historical data...
Loading historical data...

Documentation

Showing up to 5 results
|